Waarnemingen

Advertentie
Mijn weer
Lakaträsk, Zweden (2174): temperatuur & dauwpunt: 12.02.2018 05:00:00 - 18.02.2018 05:00:00 (CET)Lakaträsk, Zweden (2174): windsnelheid & windstoten: 12.02.2018 05:00:00 - 18.02.2018 05:00:00 (CET)Lakaträsk, Zweden (2174): windrichting: 12.02.2018 05:00:00 - 18.02.2018 05:00:00 (CET)Lakaträsk, Zweden (2174): luchtdruk: 12.02.2018 05:00:00 - 18.02.2018 05:00:00 (CET)Lakaträsk, Zweden (2174): zicht: 12.02.2018 05:00:00 - 18.02.2018 05:00:00 (CET)Lakaträsk, Zweden (2174): neerslag: 12.02.2018 05:00:00 - 18.02.2018 05:00:00 (CET)
Datum & Tijd tt [°C] td [°C] ff [km/u] ff [kn] fx [km/u] fx [kn] dd ppp [hPa] vv [km] rr [mm]
18.02.2018 05:00:00 -8,7 -9,7 3 2 13 7 ZO 1024,5 8 0,0
18.02.2018 04:00:00 -8,5 -9,4 4 2 11 6 OZO 1024,4 9 0,0
18.02.2018 03:00:00 -8,0 -8,9 3 2 6 4 ZO 1024,4 8 0,0
18.02.2018 02:00:00 -7,7 -8,5 3 1 6 3 ZO 1024,4 6 0,0
18.02.2018 01:00:00 -7,5 -8,3 0 0 6 3 N 1024,3 8 0,1
18.02.2018 00:00:00 -7,5 -8,3 3 2 6 3 ZO 1024,3 15 0,0
17.02.2018 23:00:00 -7,5 -8,3 3 1 6 3 OZO 1024,5 12 0,0
17.02.2018 22:00:00 -7,7 -8,5 0 0 8 4 N 1024,4 14 0,0
17.02.2018 21:00:00 -7,8 -8,6 3 2 6 3 ZO 1024,3 15 0,0
17.02.2018 20:00:00 -7,9 -8,7 3 2 8 4 Z 1024,1 14 0,0
17.02.2018 19:00:00 -7,9 -8,7 4 2 9 5 Z 1024,0 15 0,0
17.02.2018 18:00:00 -7,7 -8,5 3 2 6 3 Z 1023,8 16 0,0
17.02.2018 17:00:00 -8,2 -9,1 0 0 3 1 N 1023,7 17 0,0
17.02.2018 16:00:00 -8,3 -9,2 0 0 3 1 N 1023,7 16 0,0
17.02.2018 15:00:00 -8,4 -9,3 0 0 8 4 N 1023,7 12 0,0
17.02.2018 14:00:00 -8,7 -9,6 2 1 8 4 Z 1023,6 16 0,0
17.02.2018 13:00:00 -8,6 -9,5 2 1 9 5 OZO 1023,5 14 0,0
17.02.2018 12:00:00 -8,7 -9,6 0 0 6 3 N 1023,4 12 0,0
17.02.2018 11:00:00 -9,0 -9,9 0 0 7 4 N 1023,3 - 0,0
17.02.2018 10:00:00 -9,2 -10,1 0 0 9 5 N 1023,3 4,3 0,1
17.02.2018 09:00:00 -9,3 -10,1 5 3 10 5 ZZO 1023,1 - 0,0
17.02.2018 08:00:00 -8,9 -9,7 3 2 10 6 ZZW 1022,8 2,0 0,0
17.02.2018 07:00:00 -8,6 -9,4 3 2 7 4 Z 1022,7 10 0,0
17.02.2018 06:00:00 -8,5 -9,3 3 2 7 4 ZZO 1022,7 10 0,0
17.02.2018 05:00:00 -8,6 -9,5 2 1 10 6 ZO 1022,6 14 0,0
17.02.2018 04:00:00 -9,8 -10,9 3 1 7 4 OZO 1022,5 30 0,0
17.02.2018 03:00:00 -11,3 -12,2 3 2 6 3 O 1022,3 41 0,0
17.02.2018 02:00:00 -13,0 -14,2 3 1 5 3 OZO 1022,1 41 0,0
17.02.2018 01:00:00 -11,4 -12,7 0 0 7 4 N 1021,8 40 0,0
17.02.2018 00:00:00 -8,3 -9,4 4 2 7 4 ZO 1021,5 20 0,0
16.02.2018 23:00:00 -5,8 -7,0 4 2 16 9 ZZO 1021,5 31 0,0
16.02.2018 22:00:00 -5,8 -6,9 6 4 15 8 Z 1021,5 27 0,0
16.02.2018 21:00:00 -5,7 -6,8 5 3 11 6 Z 1021,4 31 0,0
16.02.2018 20:00:00 -5,9 -7,0 6 3 11 6 ZZO 1021,1 26 0,0
16.02.2018 19:00:00 -5,8 -6,7 6 3 15 8 ZZO 1021,0 24 0,0
16.02.2018 18:00:00 -5,2 -6,3 8 4 20 11 ZZO 1020,5 22 0,0
16.02.2018 17:00:00 -4,6 -5,7 8 5 16 9 ZZO 1020,3 23 0,0
16.02.2018 16:00:00 -3,6 -4,9 7 4 14 8 ZZO 1020,0 23 0,0
16.02.2018 15:00:00 -3,1 -4,7 5 3 14 7 ZZO 1020,0 27 0,0
16.02.2018 14:00:00 -2,8 -4,7 8 4 14 7 ZZO 1019,9 29 0,0
16.02.2018 13:00:00 -2,8 -4,5 7 4 14 7 Z 1019,8 17 0,0
16.02.2018 12:00:00 -3,0 -4,7 6 4 14 8 Z 1019,7 22 0,0
16.02.2018 11:00:00 -3,4 -5,0 6 4 15 8 ZZO 1019,5 22 0,0
16.02.2018 10:00:00 -3,7 -5,1 6 3 11 6 ZZO 1019,5 22 0,0
16.02.2018 09:00:00 -4,1 -5,1 6 3 11 6 ZZO 1019,3 16 0,0
16.02.2018 08:00:00 -4,9 -5,7 6 3 13 7 ZZO 1019,1 18 0,0
16.02.2018 07:00:00 -5,6 -6,3 8 4 13 7 ZZO 1019,3 24 0,0
16.02.2018 06:00:00 -7,3 -8,0 4 2 8 4 Z 1019,5 39 0,0
16.02.2018 05:00:00 -9,6 -10,5 0 0 11 6 N 1019,5 20 0,0
16.02.2018 04:00:00 -5,7 -7,1 6 3 13 7 ZZO 1019,3 50 0,0
16.02.2018 03:00:00 -7,7 -8,9 6 3 10 6 ZO 1019,3 50 0,0
16.02.2018 02:00:00 -4,6 -6,7 3 2 14 8 ZZO 1019,3 50 0,0
16.02.2018 01:00:00 -4,8 -7,1 4 2 18 10 Z 1019,5 50 0,0
16.02.2018 00:00:00 -4,3 -6,8 9 5 17 9 Z 1019,2 50 0,0
15.02.2018 23:00:00 -3,9 -6,2 8 5 19 10 Z 1018,8 36 0,0
15.02.2018 22:00:00 -3,8 -5,8 7 4 16 8 Z 1018,7 50 0,0
15.02.2018 21:00:00 -4,2 -5,9 6 3 11 6 Z 1018,5 50 0,0
15.02.2018 20:00:00 -4,6 -6,0 3 1 11 6 ZW 1018,5 50 0,0
15.02.2018 19:00:00 -4,6 -6,1 6 3 15 8 ZO 1018,2 50 0,0
15.02.2018 18:00:00 -5,5 -6,7 6 3 12 7 ZO 1018,3 50 0,0
15.02.2018 17:00:00 -5,4 -6,9 6 3 15 8 ZZO 1018,1 50 0,0
15.02.2018 16:00:00 -4,5 -6,3 6 3 14 8 ZZO 1018,0 50 0,0
15.02.2018 15:00:00 -3,4 -5,7 6 4 18 10 ZZO 1017,9 50 0,0
15.02.2018 14:00:00 -2,4 -5,7 9 5 22 12 Z 1017,7 47 0,0
15.02.2018 13:00:00 -2,5 -5,1 10 5 24 13 Z 1017,6 50 0,0
15.02.2018 12:00:00 -2,6 -5,6 11 6 26 14 Z 1017,6 38 0,0
15.02.2018 11:00:00 -2,8 -5,4 11 6 24 13 Z 1017,6 45 0,0
15.02.2018 10:00:00 -2,8 -5,3 12 7 29 15 Z 1017,3 40 0,0
15.02.2018 09:00:00 -2,7 -4,9 9 5 21 12 Z 1017,0 29 0,0
15.02.2018 08:00:00 -2,6 -4,9 10 5 25 13 Z 1016,8 30 0,0
15.02.2018 07:00:00 -2,2 -3,9 9 5 23 12 Z 1016,3 28 0,0
15.02.2018 06:00:00 -2,0 -3,6 9 5 19 10 Z 1016,4 39 0,0
15.02.2018 05:00:00 -1,9 -3,5 8 4 15 8 Z 1016,1 49 0,0
15.02.2018 04:00:00 -2,3 -3,3 5 3 13 7 Z 1016,3 45 0,0
15.02.2018 03:00:00 -2,2 -3,5 7 4 15 8 ZZO 1016,3 33 0,0
15.02.2018 02:00:00 -2,4 -3,5 6 3 12 7 ZZO 1016,3 50 0,0
15.02.2018 01:00:00 -2,4 -3,5 6 3 15 8 Z 1016,2 50 0,0
15.02.2018 00:00:00 -2,5 -3,6 8 4 16 9 Z 1016,3 50 0,0
14.02.2018 23:00:00 -2,5 -3,6 8 4 18 10 Z 1016,1 40 0,0
14.02.2018 22:00:00 -2,6 -3,7 8 4 15 8 Z 1015,9 50 0,0
14.02.2018 21:00:00 -2,7 -3,7 7 4 15 8 ZZO 1015,6 44 0,0
14.02.2018 20:00:00 -2,7 -3,7 6 4 16 9 Z 1015,8 32 0,0
14.02.2018 19:00:00 -2,8 -3,8 5 3 16 8 ZZO 1015,9 23 0,0
14.02.2018 18:00:00 -2,9 -4,0 8 4 17 9 ZZO 1015,6 35 0,0
14.02.2018 17:00:00 -2,9 -4,0 8 4 26 14 ZZO 1015,5 50 0,0
14.02.2018 16:00:00 -2,5 -3,9 10 6 19 11 ZZO 1015,3 50 0,0
14.02.2018 15:00:00 -2,1 -3,5 10 5 18 10 ZO 1014,9 50 0,0
14.02.2018 14:00:00 -1,7 -3,1 4 2 14 8 Z 1015,0 50 0,0
14.02.2018 13:00:00 -1,8 -3,2 6 4 11 6 ZZO 1014,8 50 0,0
14.02.2018 12:00:00 -1,9 -3,5 5 3 18 10 Z 1014,5 49 0,0
14.02.2018 11:00:00 -1,9 -3,0 7 4 18 10 Z 1014,3 45 0,0
14.02.2018 10:00:00 -1,7 -2,7 7 4 14 8 Z 1013,8 50 0,0
14.02.2018 09:00:00 -1,5 -2,3 6 4 14 8 Z 1013,3 50 0,0
14.02.2018 08:00:00 -1,5 -2,3 5 3 11 6 ZZO 1012,5 50 0,0
14.02.2018 07:00:00 -1,3 -1,9 5 3 14 7 ZZO 1011,9 - 0,1
14.02.2018 06:00:00 -1,3 -1,7 4 2 12 6 ZO 1011,3 4,4 0,5
14.02.2018 05:00:00 -1,4 -2,0 5 3 10 5 ZO 1011,1 2,2 0,2
14.02.2018 04:00:00 -1,9 -2,3 4 2 13 7 O 1010,9 2,0 0,3
14.02.2018 03:00:00 -2,1 -2,5 7 4 17 9 O 1010,8 4,8 0,1
14.02.2018 02:00:00 -2,3 -2,7 9 5 17 9 ONO 1010,8 2,9 0,1
14.02.2018 01:00:00 -2,6 -3,0 8 4 18 10 O 1010,9 2,6 0,2
14.02.2018 00:00:00 -2,8 -3,2 11 6 21 11 O 1011,0 - 0,2
13.02.2018 23:00:00 -3,0 -3,5 10 6 23 12 O 1011,0 3,1 0,0
13.02.2018 22:00:00 -3,4 -3,8 9 5 20 11 O 1011,2 4,1 0,1
13.02.2018 21:00:00 -3,7 -4,2 8 4 18 10 ONO 1011,4 3,6 0,1
13.02.2018 20:00:00 -4,0 -4,7 6 3 15 8 O 1011,4 2,0 0,5
13.02.2018 19:00:00 -4,3 -5,0 6 3 15 8 O 1011,4 4,7 0,1
13.02.2018 18:00:00 -4,4 -5,2 9 5 20 11 O 1011,3 5 0,2
13.02.2018 17:00:00 -4,2 -5,0 8 5 17 9 O 1011,1 7 0,0
13.02.2018 16:00:00 -4,4 -5,1 5 3 12 6 ONO 1010,9 6 0,0
13.02.2018 15:00:00 -4,4 -5,1 4 2 11 6 O 1010,8 8 0,0
13.02.2018 14:00:00 -4,4 -5,2 4 2 10 6 O 1010,5 3,6 0,1
13.02.2018 13:00:00 -4,9 -5,4 4 2 13 7 O 1010,7 5 0,0
13.02.2018 12:00:00 -5,2 -5,9 5 3 16 9 O 1010,7 4,6 0,1
13.02.2018 11:00:00 -5,4 -6,1 5 3 15 8 O 1010,5 9 0,0
13.02.2018 10:00:00 -5,5 -6,3 7 4 16 9 O 1010,2 10 0,0
13.02.2018 09:00:00 -5,5 -6,6 5 3 16 9 O 1010,2 12 0,0
13.02.2018 08:00:00 -5,6 -6,7 6 4 15 8 OZO 1009,7 7 0,0
13.02.2018 07:00:00 -5,5 -6,5 5 3 14 7 OZO 1009,5 12 0,1
13.02.2018 06:00:00 -5,7 -6,4 4 2 13 7 OZO 1009,1 4,5 0,1
13.02.2018 05:00:00 -5,9 -6,7 6 3 14 8 O 1009,1 7 0,0
13.02.2018 04:00:00 -6,2 -7,0 5 3 12 7 O 1009,0 11 0,0
13.02.2018 03:00:00 -6,4 -7,2 3 1 9 5 O 1008,9 - 0,0
13.02.2018 02:00:00 -6,4 -7,2 4 2 9 5 O 1009,0 8 0,0
13.02.2018 01:00:00 -6,4 -7,3 5 3 15 8 O 1008,7 10 0,0
13.02.2018 00:00:00 -6,4 -7,2 3 2 14 7 O 1008,7 11 0,0
12.02.2018 23:00:00 -7,1 -8,2 6 4 13 7 O 1008,7 6 0,1
12.02.2018 22:00:00 -7,5 -8,7 4 2 10 5 O 1008,7 2,7 0,1
12.02.2018 21:00:00 -7,7 -8,9 4 2 10 6 O 1008,7 2,9 0,2
12.02.2018 20:00:00 -8,6 -9,7 4 2 14 7 NO 1008,7 2,8 0,1
12.02.2018 19:00:00 -9,0 -10,1 2 1 8 5 N 1008,8 4,1 0,0
12.02.2018 18:00:00 -8,6 -9,9 4 2 14 7 O 1008,8 2,5 0,1
12.02.2018 17:00:00 -8,9 -10,1 3 2 11 6 ONO 1009,0 2,8 0,0
12.02.2018 16:00:00 -8,7 -10,0 6 3 14 8 ONO 1009,1 6 0,1
12.02.2018 15:00:00 -8,8 -10,1 8 5 15 8 O 1009,1 7 0,1
12.02.2018 14:00:00 -8,8 -10,3 7 4 12 7 ONO 1009,3 6 0,0
12.02.2018 13:00:00 -8,9 -10,4 3 2 14 8 ONO 1009,6 2,7 0,1
12.02.2018 12:00:00 -9,0 -10,6 3 2 14 8 NO 1009,7 8 0,0
12.02.2018 11:00:00 -9,6 -11,1 7 4 15 8 O 1010,2 6 0,0
12.02.2018 10:00:00 -9,6 -11,1 7 4 17 9 O 1010,2 8 0,1
12.02.2018 09:00:00 -9,8 -11,1 5 3 16 8 O 1010,3 5 0,0
12.02.2018 08:00:00 -9,8 -11,0 7 4 15 8 O 1010,2 3,7 0,0
12.02.2018 07:00:00 -9,6 -10,8 5 3 20 11 O 1010,4 4,7 0,0
12.02.2018 06:00:00 -9,4 -10,6 9 5 16 9 O 1010,5 9 0,0
12.02.2018 05:00:00 -9,2 -10,3 3 2 15 8 O 1010,6 7 0,1

tt = temperatuur
td = dauwpunt
ff = windsnelheid
fx = windstoten
dd = windrichting
ppp = luchtdruk
vv = zicht
rr = neerslag

Weerstations in de omgeving